{"data":{"norad_id":63560,"intl_designator":"2025-075N","name":"STARLINK-11592 [DTC]","alt_names":[],"object_type":"PAYLOAD","status":"ACTIVE","operator":null,"country":"US","launch_date":"2025-04-13","launch_site_code":"AFETR","launch_vehicle":null,"mission":null,"orbit_class":"UNKNOWN","rcs_meters":null,"size_class":null,"mass_kg":null,"dimensions":null,"purposes":["comms"],"wikipedia_slug":null,"has_3d_model":false,"image_url":null,"decayed_at":null,"tle_current":{"epoch":"2026-09-20T11:12:59.852160Z","epoch_age_seconds":158534,"freshness":"FRESH","line1":"1 63560U 25075N   26263.46735940  .00134787  00000+0  10349-2 0  9994","line2":"2 63560  43.0010  59.6029 0002360 268.7169  91.3429 15.70886674 83888","mean_motion":15.70886674,"eccentricity":0.000236,"inclination_deg":43.001,"raan_deg":59.6029,"arg_perigee_deg":268.7169,"mean_anomaly_deg":91.3429,"bstar":0.0010349,"rev_number":8388,"period_min":91.667974770789,"perigee_km":354.77232016024,"apogee_km":357.95100352863,"semimajor_km":6734.4986618444,"source":"CELESTRAK","updated_at":"2026-09-21T09:00:35.021470Z"}}}